Temp
81 79 79 80 87 87 88 88 88 89 89 90 91 93 91 89 87 87 87 86 85 85 86 86 86 86 86 84 82 81 82 82 83 82 80 80 80 81 82 84 85 84 86 87 87 86 88 89 89 90 88 88 88 88 87 87 87 89 88 88 87 85 84
80 83 81 80 84 85 86 86 87 89 90 91 90 91 93 88 88 88 87 86 86 86 86 86 86 86 86 85 83 82 81 82 83 83 82 80 80 80 83 85 83 85 84 86 85 87 88 91 89 89 89 88 89 88 88 87 87 87 88 87 87 87 87
78 77 82 83 84 84 84 86 88 90 90 91 92 92 92 87 86 86 86 86 86 86 88 87 87 87 87 87 84 83 83 84 83 85 83 83 81 81 81 83 81 85 87 87 85 88 89 90 89 89 89 88 90 88 88 87 87 88 87 86 87 86 86
74 78 80 81 83 84 85 85 87 89 91 92 91 92 91 88 90 87 87 87 86 87 86 88 88 89 89 87 87 85 84 83 83 84 84 85 83 83 83 80 83 87 86 87 88 90 89 89 89 88 89 88 88 89 88 88 89 88 87 85 85 87 85
74 79 81 80 81 81 83 85 86 87 89 93 91 89 89 90 90 89 88 89 88 87 90 90 91 91 89 89 90 90 89 89 86 84 86 87 86 87 85 87 87 89 86 88 88 86 83 85 89 88 88 87 89 88 88 88 88 87 87 86 86 87 87
77 78 80 82 79 79 83 85 85 87 89 92 90 87 90 92 90 91 90 89 88 90 90 88 90 90 90 91 91 91 90 89 88 89 89 87 87 88 88 88 89 89 87 87 89 89 86 87 88 88 89 90 90 89 89 89 89 89 87 86 86 87 88
79 80 81 81 80 79 79 80 83 86 88 88 89 90 88 89 87 86 91 92 92 89 91 92 92 91 90 90 90 91 89 91 90 91 92 91 88 87 88 89 89 90 89 88 89 89 89 88 88 88 89 90 89 90 88 86 87 87 87 86 85 86 85
80 81 82 83 81 81 78 78 79 80 82 82 84 84 83 82 80 78 73 75 85 92 91 92 93 92 90 90 91 91 92 92 92 91 91 92 92 89 89 89 88 89 89 90 89 90 91 89 91 90 90 90 90 88 88 87 85 89 88 86 85 86 89
82 82 83 83 82 83 79 77 77 78 80 81 81 81 81 79 77 75 76 77 74 75 88 90 92 92 89 90 90 89 92 92 92 92 92 92 93 93 93 92 91 91 89 90 91 91 90 90 91 88 88 88 88 87 86 84 87 88 87 86 85 86 88
78 79 82 83 83 83 78 77 77 76 76 77 78 79 79 78 76 76 76 76 77 79 88 90 91 90 89 89 91 93 93 92 92 93 92 93 94 94 95 95 93 93 93 92 92 91 89 90 89 87 87 89 88 88 86 85 86 88 87 86 85 85 85
73 75 77 78 82 81 77 77 76 75 75 75 76 77 79 78 77 79 78 76 81 85 87 88 88 88 90 90 89 90 93 93 94 93 92 92 94 95 96 96 96 94 94 94 91 90 90 89 89 87 87 90 89 88 88 87 87 87 89 88 87 87 87
70 70 70 75 80 80 76 76 77 77 76 76 76 77 76 77 79 81 84 85 86 81 78 82 88 88 87 87 88 88 90 92 93 94 93 94 95 96 96 96 96 96 95 95 94 91 92 90 90 88 87 87 89 88 87 88 88 87 88 90 90 88 88
72 72 72 72 72 78 78 76 76 77 77 78 77 77 78 78 77 78 78 81 84 85 82 81 84 86 88 89 89 87 88 89 89 90 93 94 94 96 95 96 97 97 96 96 94 94 93 91 88 88 88 88 89 89 88 87 89 87 87 89 90 89 88
72 72 71 71 70 70 74 75 76 76 76 78 78 77 76 78 78 77 77 78 79 81 82 85 86 86 87 88 87 87 87 88 88 89 89 90 91 92 95 95 96 95 95 94 94 94 94 94 90 90 90 89 90 89 88 88 88 87 87 88 89 89 89
70 70 69 70 70 70 72 75 76 76 76 77 78 77 77 77 78 78 78 78 78 78 80 81 81 83 84 84 85 85 84 83 81 80 86 90 89 89 91 92 92 92 92 93 92 96 95 95 96 92 89 91 89 89 89 88 89 89 88 87 88 88 89
69 68 69 69 70 70 71 70 73 74 76 77 78 78 78 78 78 78 78 77 78 78 79 80 80 81 82 83 84 84 83 81 80 80 80 80 81 81 85 88 90 92 91 91 93 91 92 91 92 94 92 89 89 90 91 89 88 87 85 85 88 87 89
68 68 68 68 68 69 69 71 70 71 72 75 77 78 78 79 79 79 79 78 79 78 78 79 78 79 80 81 82 82 81 80 79 78 77 76 76 76 76 75 78 80 82 88 90 89 89 89 91 93 95 93 88 88 89 88 87 79 73 75 79 88 88
68 70 70 70 70 69 70 70 70 68 69 72 75 76 77 76 77 78 76 77 77 77 78 78 78 77 78 79 79 80 80 80 79 78 76 75 75 74 74 72 73 73 74 76 81 85 90 91 90 89 92 93 94 91 85 84 69 63 67 72 74 82 88
68 70 71 71 70 70 70 70 70 71 72 72 74 74 75 76 75 72 73 74 74 76 76 76 77 78 78 78 78 78 78 79 79 78 76 75 75 75 74 73 73 73 73 75 76 77 80 79 80 82 86 90 87 83 85 81 64 63 66 68 70 75 88
69 72 73 72 73 72 72 70 72 71 70 69 70 73 73 74 73 73 74 74 75 75 75 75 75 75 74 75 75 76 78 78 77 77 76 75 75 75 74 73 73 73 75 77 79 79 78 80 80 81 80 81 78 79 80 77 65 63 64 65 66 67 75
71 72 72 72 73 73 72 73 71 72 72 73 74 73 73 74 76 75 75 75 74 75 74 74 74 74 74 74 74 75 75 75 76 75 76 76 76 76 75 74 73 76 76 75 75 78 78 79 79 78 78 79 82 81 80 73 60 61 62 62 63 65 74
72 73 72 72 73 72 72 73 73 74 73 76 78 78 79 78 78 77 75 76 74 74 74 74 73 72 73 73 74 73 74 74 75 75 76 77 76 75 75 75 76 76 77 77 77 77 77 76 74 76 77 78 79 81 76 69 58 59 60 60 63 67 81
75 75 76 76 76 76 78 77 75 77 78 79 80 79 78 78 79 77 77 76 76 75 75 73 72 72 72 72 72 72 73 73 74 74 73 73 73 73 74 74 74 74 75 76 77 76 75 76 75 74 75 76 76 77 75 70 60 57 57 58 59 70 81
78 78 77 77 78 79 79 79 81 81 82 80 79 80 79 79 77 77 75 75 76 76 75 75 73 73 73 72 73 72 73 73 72 72 73 72 71 71 72 73 74 74 74 74 74 73 73 72 73 73 74 75 75 76 72 69 61 56 56 57 57 67 79
78 80 81 81 80 79 80 80 80 81 81 81 82 82 82 81 79 79 79 78 78 77 75 75 75 77 75 76 75 74 74 73 73 72 71 71 70 71 71 71 71 72 73 73 73 74 74 73 70 70 72 73 72 73 69 67 64 56 55 56 57 66 79
77 79 79 80 81 81 79 79 80 81 81 81 80 81 81 82 81 78 77 76 77 75 73 73 73 75 77 78 78 78 77 75 73 73 72 72 71 71 71 71 72 71 72 72 72 73 73 72 71 70 70 70 70 70 68 65 63 59 54 54 57 61 77
80 79 79 80 80 80 81 81 80 80 80 79 79 82 82 80 79 77 76 77 76 75 75 75 75 75 74 75 77 77 76 77 77 76 75 75 73 74 73 72 71 71 70 69 70 71 71 71 70 69 67 67 66 66 66 67 65 61 54 54 54 57 67
79 80 82 81 80 80 80 81 80 80 81 80 80 80 79 77 75 74 74 75 75 77 78 78 76 76 74 73 74 75 75 75 76 77 77 76 75 74 74 74 73 72 70 69 68 67 66 66 66 65 65 65 65 65 65 66 66 64 58 54 53 53 56
77 77 78 78 79 82 82 80 80 80 80 81 81 80 79 77 73 73 73 73 74 78 78 78 78 77 76 75 75 74 75 75 76 76 76 76 76 76 75 75 73 72 71 70 68 67 66 66 65 65 64 64 64 64 64 64 64 63 63 57 54 53 55
77 78 80 81 81 80 80 78 77 77 78 79 78 77 76 74 72 72 71 71 75 77 77 77 78 77 77 76 76 76 76 76 76 76 76 76 75 75 75 74 74 73 72 71 69 67 66 65 65 64 63 62 63 64 65 65 65 65 64 63 57 55 54
77 79 79 78 79 79 79 78 76 77 76 77 76 76 75 75 72 72 71 72 75 74 75 76 76 76 76 77 77 77 77 76 75 75 76 76 76 74 74 75 74 72 74 74 72 71 69 68 68 66 65 64 63 63 64 65 66 65 65 65 64 59 58
78 78 78 78 78 78 79 79 78 77 76 76 77 76 75 75 74 71 72 75 75 75 75 75 74 74 75 76 76 77 79 78 78 78 77 77 77 75 75 75 75 73 72 73 74 73 73 71 71 70 69 67 66 65 65 66 66 66 66 67 69 67 63
75 75 76 76 77 78 78 78 77 76 76 75 76 76 76 75 75 74 74 74 76 76 75 75 74 74 74 74 76 76 76 77 79 80 79 78 79 78 76 74 73 71 70 70 71 73 73 73 72 72 72 71 69 68 67 68 69 68 67 65 65 67 69
72 74 74 76 77 78 77 76 75 74 74 73 74 75 76 76 75 75 74 76 77 76 74 73 74 75 75 76 76 76 77 76 78 77 77 75 73 73 73 73 72 68 66 66 67 67 70 74 73 71 70 68 68 69 69 66 64 64 63 64 63 64 66
69 70 73 74 74 77 74 73 72 72 72 72 73 73 73 73 74 75 74 74 74 74 73 73 74 74 75 76 76 77 77 79 79 78 75 71 68 65 64 65 70 69 66 65 64 66 68 69 69 70 72 68 66 67 66 65 63 61 53 54 50 54 60
71 72 73 73 75 74 73 73 72 72 71 71 72 73 73 73 73 73 75 74 74 74 72 72 74 76 78 77 77 77 78 79 78 75 75 73 69 68 65 57 50 56 67 66 58 51 51 55 63 64 69 68 64 65 66 64 61 50 44 43 43 43 43
71 71 72 73 73 72 71 72 71 70 70 70 72 72 72 72 73 73 74 74 74 74 72 73 72 74 75 74 74 72 73 75 75 74 71 72 73 71 68 67 61 45 44 51 52 47 43 43 45 49 54 63 64 57 50 50 45 43 43 42 42 42 41
73 72 72 73 73 72 71 71 71 70 69 70 70 70 71 72 73 73 75 74 73 73 72 72 71 69 70 71 70 70 71 71 71 71 71 70 71 71 69 66 63 62 46 41 46 45 42 41 43 45 47 49 56 64 61 50 42 39 42 43 43 42 41
MSLP
1012.60 1013.12 1012.76 1012.64 1011.52 1011.76 1011.80 1012.00 1012.08 1012.28 1012.44 1012.44 1012.48 1012.56 1013.16 1013.60 1014.00 1014.44 1014.80 1015.12 1015.60 1015.92 1015.92 1016.08 1016.24 1016.28 1016.52 1016.84 1017.20 1017.40 1017.52 1017.80 1017.96 1018.32 1018.60 1018.64 1018.72 1018.88 1018.96 1018.88 1018.84 1018.88 1018.76 1018.88 1018.76 1018.60 1018.36 1018.16 1018.24 1018.24 1018.40 1018.64 1018.80 1018.84 1018.92 1018.96 1019.08 1019.08 1019.16 1019.16 1019.32 1019.52 1019.60
1012.52 1012.16 1012.60 1013.00 1012.12 1011.80 1011.76 1011.88 1012.00 1011.96 1012.16 1012.28 1012.52 1012.40 1012.56 1013.48 1013.84 1014.32 1014.64 1014.92 1015.24 1015.60 1015.72 1015.92 1016.16 1016.24 1016.28 1016.60 1017.00 1017.28 1017.56 1017.60 1017.68 1017.96 1018.28 1018.56 1018.68 1018.80 1018.64 1018.60 1018.72 1018.80 1018.68 1018.64 1018.60 1018.28 1018.24 1018.08 1018.16 1018.20 1018.36 1018.48 1018.64 1018.60 1018.76 1018.88 1018.96 1019.00 1019.08 1019.20 1019.40 1019.52 1019.48
1012.80 1013.24 1012.52 1012.20 1012.04 1011.96 1012.00 1011.92 1011.96 1011.88 1011.96 1012.20 1012.32 1012.44 1012.60 1013.16 1013.64 1014.00 1014.48 1014.84 1015.24 1015.44 1015.44 1015.68 1015.88 1016.04 1016.08 1016.24 1016.76 1017.08 1017.28 1017.36 1017.64 1017.76 1018.20 1018.52 1018.60 1018.40 1018.40 1018.44 1018.44 1018.64 1018.48 1018.36 1018.36 1018.36 1018.08 1018.08 1018.04 1018.08 1018.20 1018.44 1018.40 1018.52 1018.60 1018.76 1018.84 1018.92 1019.04 1019.16 1019.32 1019.48 1019.56
1013.72 1012.84 1012.52 1012.28 1011.84 1011.76 1011.80 1011.80 1011.88 1011.88 1011.96 1011.96 1012.20 1012.36 1012.56 1012.84 1013.04 1013.68 1014.08 1014.56 1015.08 1015.32 1015.56 1015.48 1015.60 1015.80 1015.92 1016.20 1016.44 1016.72 1017.04 1017.20 1017.36 1017.60 1017.84 1017.96 1018.24 1018.24 1018.48 1018.68 1018.60 1018.28 1018.44 1018.40 1018.12 1018.00 1018.00 1018.00 1018.12 1018.12 1018.16 1018.32 1018.40 1018.40 1018.52 1018.64 1018.68 1018.80 1018.92 1019.16 1019.36 1019.24 1019.36
1013.52 1012.68 1012.28 1012.56 1012.52 1012.20 1012.00 1011.88 1011.88 1012.00 1012.00 1011.84 1012.00 1012.20 1012.44 1012.72 1012.92 1013.52 1013.88 1014.16 1014.48 1014.96 1015.00 1015.04 1015.12 1015.28 1015.52 1015.76 1016.00 1016.16 1016.40 1016.64 1017.04 1017.56 1017.72 1017.60 1017.84 1017.88 1018.44 1018.36 1018.24 1018.08 1018.08 1018.00 1017.92 1018.08 1018.08 1018.16 1018.08 1018.16 1018.20 1018.28 1018.40 1018.48 1018.56 1018.56 1018.64 1018.68 1018.84 1019.00 1019.24 1019.12 1019.32
1012.84 1012.76 1012.52 1012.36 1012.84 1012.92 1012.08 1012.00 1011.96 1011.84 1011.92 1011.96 1012.28 1012.92 1012.80 1012.80 1013.12 1013.56 1013.88 1014.08 1014.28 1014.40 1014.52 1014.72 1014.96 1015.08 1015.48 1015.48 1015.60 1015.76 1015.96 1016.20 1016.36 1016.56 1016.88 1017.20 1017.44 1017.68 1017.84 1017.92 1017.84 1017.88 1018.04 1017.96 1017.72 1017.84 1017.88 1018.08 1018.08 1018.12 1018.24 1018.24 1018.28 1018.44 1018.48 1018.56 1018.56 1018.60 1018.76 1018.92 1019.08 1019.08 1019.20
1012.32 1012.24 1012.20 1012.32 1012.68 1013.00 1012.48 1012.20 1012.04 1011.92 1011.72 1012.00 1012.28 1012.56 1013.00 1013.24 1013.72 1013.92 1013.80 1014.00 1014.12 1014.40 1014.44 1014.64 1014.56 1014.80 1015.08 1015.20 1015.40 1015.48 1015.96 1016.12 1016.24 1016.40 1016.44 1016.76 1017.12 1017.40 1017.44 1017.48 1017.52 1017.48 1017.52 1017.52 1017.64 1017.56 1017.76 1017.96 1017.92 1017.92 1018.04 1018.08 1018.16 1018.24 1018.44 1018.60 1018.60 1018.60 1018.72 1018.92 1019.12 1019.08 1019.16
1011.76 1011.92 1011.92 1012.00 1012.44 1012.64 1012.96 1012.76 1012.56 1012.44 1012.12 1012.36 1012.68 1013.20 1013.60 1013.96 1014.08 1014.24 1014.64 1015.44 1015.44 1014.16 1014.16 1014.32 1014.40 1014.44 1014.80 1015.08 1015.24 1015.40 1015.64 1015.72 1015.84 1016.08 1016.20 1016.40 1016.64 1017.12 1017.28 1017.24 1017.32 1017.20 1017.24 1017.52 1017.40 1017.32 1017.56 1017.68 1017.64 1017.72 1017.88 1017.96 1018.04 1018.12 1018.36 1018.44 1018.56 1018.56 1018.64 1018.96 1019.12 1019.16 1019.00
1011.16 1011.48 1011.68 1011.88 1012.20 1012.40 1013.00 1013.16 1013.04 1012.84 1012.64 1012.84 1013.16 1013.52 1013.80 1014.16 1014.44 1014.68 1015.16 1015.88 1017.08 1016.52 1014.32 1014.16 1014.28 1014.36 1014.64 1014.84 1015.20 1015.48 1015.40 1015.48 1015.68 1015.84 1016.08 1016.28 1016.28 1016.48 1016.56 1016.76 1016.88 1016.84 1017.24 1017.28 1017.20 1017.12 1017.32 1017.48 1017.48 1017.68 1017.72 1018.00 1018.04 1018.16 1018.28 1018.40 1018.48 1018.40 1018.52 1018.84 1019.04 1019.16 1019.00
1011.84 1011.80 1011.64 1011.72 1011.84 1012.16 1013.04 1013.28 1013.28 1013.24 1013.16 1013.28 1013.44 1013.80 1014.20 1014.20 1014.32 1014.56 1014.88 1015.76 1016.84 1016.20 1014.28 1014.04 1014.00 1014.24 1014.60 1014.68 1014.84 1014.96 1015.16 1015.36 1015.44 1015.72 1015.96 1016.16 1016.04 1016.12 1016.04 1016.08 1016.36 1016.40 1016.64 1016.88 1017.00 1017.20 1017.24 1017.24 1017.32 1017.60 1017.72 1017.84 1017.96 1018.08 1018.20 1018.32 1018.40 1018.32 1018.44 1018.72 1018.88 1019.04 1019.04
1012.48 1012.40 1012.28 1012.60 1012.24 1012.48 1013.08 1013.40 1013.60 1013.80 1013.80 1013.88 1013.92 1013.92 1014.00 1014.24 1014.72 1014.76 1015.08 1016.32 1016.00 1014.92 1014.36 1014.20 1014.08 1014.40 1014.56 1014.68 1015.00 1014.96 1015.00 1015.16 1015.24 1015.56 1015.84 1016.00 1015.88 1015.88 1015.80 1015.84 1015.92 1016.08 1016.36 1016.48 1016.96 1017.12 1017.20 1017.20 1017.24 1017.56 1017.64 1017.84 1017.92 1018.04 1018.08 1018.24 1018.24 1018.28 1018.32 1018.36 1018.44 1018.68 1018.72
1013.32 1013.96 1014.00 1012.88 1012.40 1012.68 1013.36 1013.60 1013.72 1013.80 1013.88 1014.04 1014.20 1014.32 1014.44 1014.44 1014.40 1014.36 1014.40 1014.60 1014.64 1014.72 1014.80 1015.04 1014.20 1014.40 1014.68 1014.84 1015.08 1015.24 1015.20 1015.08 1015.12 1015.28 1015.44 1015.48 1015.48 1015.56 1015.56 1015.64 1015.76 1015.80 1015.92 1016.12 1016.40 1016.80 1016.96 1017.08 1017.16 1017.40 1017.68 1017.68 1017.72 1017.84 1017.96 1017.88 1017.92 1018.08 1018.12 1018.08 1018.08 1018.32 1018.44
1013.32 1013.36 1013.36 1013.20 1013.20 1013.04 1013.12 1013.72 1013.92 1013.96 1014.00 1014.00 1014.24 1014.44 1014.48 1014.52 1014.40 1014.52 1014.72 1014.68 1014.40 1014.52 1014.92 1015.36 1015.04 1014.72 1014.68 1014.80 1015.08 1015.32 1015.40 1015.40 1015.36 1015.28 1015.24 1015.36 1015.40 1015.32 1015.40 1015.40 1015.48 1015.64 1015.88 1015.80 1016.12 1016.36 1016.76 1017.04 1017.20 1017.20 1017.40 1017.48 1017.52 1017.72 1017.80 1017.84 1017.80 1017.88 1017.96 1017.96 1017.92 1018.04 1018.28
1013.00 1013.32 1013.44 1013.16 1013.12 1013.80 1013.76 1013.84 1013.84 1014.08 1014.24 1014.20 1014.28 1014.52 1014.92 1014.56 1014.44 1014.64 1014.76 1014.88 1014.92 1014.84 1014.88 1014.76 1014.80 1014.84 1014.92 1014.92 1015.12 1015.40 1015.52 1015.48 1015.44 1015.48 1015.48 1015.40 1015.36 1015.44 1015.48 1015.40 1015.36 1015.40 1015.44 1015.60 1015.96 1016.24 1016.32 1016.60 1017.12 1017.08 1017.04 1017.24 1017.36 1017.40 1017.56 1017.76 1017.88 1017.88 1017.88 1017.92 1017.92 1017.96 1018.12
1013.40 1013.64 1013.96 1013.76 1013.52 1013.60 1013.60 1013.96 1014.12 1014.20 1014.36 1014.32 1014.32 1014.64 1014.72 1014.80 1014.84 1014.80 1014.88 1014.88 1015.04 1015.20 1015.16 1015.04 1015.24 1015.24 1015.24 1015.36 1015.44 1015.64 1015.76 1015.80 1016.08 1016.56 1016.12 1015.60 1015.68 1015.76 1015.80 1015.72 1015.64 1015.64 1015.68 1015.64 1016.08 1016.00 1016.00 1016.08 1016.20 1016.72 1017.44 1017.04 1017.20 1017.32 1017.48 1017.88 1017.92 1017.84 1018.00 1018.00 1018.00 1017.92 1018.04
1013.84 1013.96 1014.00 1014.20 1013.96 1014.20 1014.32 1014.92 1014.88 1014.76 1014.56 1014.48 1014.48 1014.52 1014.60 1014.76 1014.96 1015.08 1015.16 1015.08 1015.08 1015.24 1015.24 1015.28 1015.52 1015.64 1015.64 1015.68 1015.60 1015.60 1015.72 1016.08 1016.52 1016.48 1016.40 1016.40 1016.52 1016.64 1016.52 1016.28 1016.16 1016.04 1016.12 1016.00 1015.96 1016.08 1015.96 1016.08 1016.20 1016.24 1016.68 1017.24 1017.32 1017.32 1017.40 1017.68 1017.88 1017.68 1017.60 1017.64 1017.84 1017.96 1017.92
1014.56 1014.48 1014.64 1014.60 1014.60 1014.80 1015.20 1015.08 1015.12 1015.16 1015.16 1014.72 1014.32 1014.28 1014.36 1014.44 1014.60 1014.84 1015.00 1015.08 1015.08 1015.20 1015.20 1015.32 1015.72 1015.80 1015.84 1015.96 1015.80 1015.80 1015.92 1016.08 1016.40 1016.60 1016.80 1017.00 1016.84 1016.44 1016.80 1017.28 1017.52 1017.48 1017.40 1016.84 1016.48 1016.44 1016.36 1016.36 1016.40 1016.28 1016.16 1016.52 1017.36 1017.60 1017.64 1018.00 1017.80 1017.84 1017.76 1017.68 1017.64 1017.72 1017.80
1014.72 1014.20 1014.44 1014.60 1014.40 1014.84 1015.00 1014.96 1015.20 1015.36 1015.20 1014.80 1014.48 1014.44 1014.36 1014.68 1014.68 1014.80 1015.20 1015.12 1015.28 1015.36 1015.32 1015.56 1015.76 1016.00 1016.08 1016.04 1016.08 1016.12 1016.24 1016.28 1016.36 1016.56 1016.76 1016.96 1017.28 1017.40 1017.24 1017.04 1017.00 1017.48 1018.16 1018.48 1017.96 1017.28 1016.60 1016.52 1016.48 1016.52 1016.44 1016.36 1016.40 1016.84 1017.64 1018.16 1018.24 1018.16 1018.00 1017.92 1017.64 1017.56 1017.64
1014.76 1014.04 1014.32 1014.40 1014.40 1014.56 1014.88 1015.16 1015.20 1014.96 1014.80 1014.76 1014.60 1014.60 1014.52 1014.48 1014.96 1015.52 1015.52 1015.56 1015.60 1015.56 1015.76 1015.92 1015.92 1015.92 1016.04 1016.12 1016.24 1016.36 1016.40 1016.36 1016.48 1016.68 1016.84 1017.08 1017.24 1017.16 1017.24 1017.36 1017.52 1017.64 1017.64 1017.80 1018.48 1018.84 1018.12 1017.40 1017.32 1017.48 1017.20 1016.92 1017.28 1017.80 1017.68 1018.08 1018.52 1018.44 1018.04 1017.88 1018.04 1017.80 1017.44
1014.80 1014.28 1014.16 1014.28 1014.28 1014.56 1014.72 1015.04 1015.00 1015.28 1015.44 1015.52 1015.32 1015.12 1015.04 1014.84 1015.20 1015.44 1015.44 1015.56 1015.56 1015.76 1016.00 1016.16 1016.28 1016.40 1016.56 1016.60 1016.60 1016.52 1016.44 1016.48 1016.64 1016.88 1017.04 1017.12 1017.20 1017.20 1017.32 1017.52 1017.68 1017.72 1017.68 1017.72 1017.80 1018.16 1018.32 1017.96 1017.92 1017.76 1017.76 1017.96 1018.40 1018.32 1018.32 1018.36 1018.60 1018.48 1018.24 1018.16 1018.04 1018.04 1017.84
1014.32 1014.32 1014.68 1014.68 1014.64 1014.68 1014.68 1014.80 1015.12 1015.04 1015.24 1015.12 1015.00 1015.36 1015.48 1015.28 1015.08 1015.32 1015.52 1015.60 1015.92 1016.00 1016.24 1016.40 1016.56 1016.68 1016.72 1016.88 1016.84 1016.68 1016.68 1016.72 1016.84 1017.04 1017.08 1017.12 1017.16 1017.16 1017.28 1017.36 1017.60 1017.60 1017.60 1017.68 1018.00 1018.20 1018.32 1018.28 1018.24 1018.20 1018.16 1018.12 1018.12 1018.20 1018.28 1018.72 1018.96 1018.60 1018.28 1018.08 1018.00 1017.92 1017.80
1014.60 1014.52 1014.92 1014.92 1014.88 1014.88 1014.76 1014.60 1014.64 1014.68 1015.04 1014.52 1014.48 1014.68 1014.72 1015.04 1015.08 1015.44 1015.84 1015.76 1016.16 1016.32 1016.40 1016.56 1016.80 1017.00 1017.00 1017.04 1016.96 1016.92 1016.88 1016.88 1016.96 1017.04 1017.12 1017.12 1017.16 1017.32 1017.36 1017.44 1017.48 1017.68 1017.68 1017.68 1017.80 1017.88 1018.08 1018.52 1018.60 1018.48 1018.40 1018.04 1018.04 1018.16 1018.68 1019.16 1019.00 1018.72 1018.64 1018.56 1018.20 1017.92 1017.84
1014.24 1014.28 1014.32 1014.52 1014.48 1014.56 1014.16 1014.24 1014.64 1014.48 1014.24 1014.36 1014.40 1014.68 1014.96 1014.92 1015.08 1015.44 1015.68 1015.96 1016.16 1016.36 1016.56 1016.80 1017.08 1017.20 1017.16 1017.20 1017.16 1017.20 1017.12 1017.08 1017.08 1017.08 1017.28 1017.44 1017.56 1017.64 1017.60 1017.60 1017.52 1017.60 1017.60 1017.84 1017.84 1018.04 1018.32 1018.48 1018.76 1018.72 1018.60 1018.48 1018.36 1018.56 1018.92 1019.04 1019.12 1018.96 1018.84 1018.68 1018.68 1018.24 1017.88
1013.96 1014.04 1014.24 1014.44 1014.28 1014.12 1014.24 1014.12 1013.96 1013.88 1014.04 1014.60 1014.84 1014.92 1015.00 1015.08 1015.36 1015.60 1016.00 1016.28 1016.32 1016.44 1016.64 1016.72 1016.96 1017.00 1017.12 1017.28 1017.24 1017.28 1017.24 1017.24 1017.32 1017.40 1017.36 1017.48 1017.72 1017.76 1017.68 1017.56 1017.52 1017.64 1017.52 1017.92 1018.08 1018.24 1018.20 1018.32 1018.52 1018.52 1018.48 1018.56 1018.64 1018.60 1018.96 1019.28 1019.48 1019.24 1018.96 1018.92 1018.80 1018.48 1018.16
1014.24 1014.12 1013.88 1014.04 1014.36 1014.72 1014.52 1014.36 1014.28 1014.24 1014.32 1014.56 1014.76 1014.72 1014.72 1015.08 1015.40 1015.68 1015.84 1016.00 1016.24 1016.48 1016.88 1017.04 1016.92 1016.72 1016.88 1016.92 1017.00 1017.12 1017.20 1017.24 1017.36 1017.48 1017.60 1017.68 1017.72 1017.68 1017.80 1017.80 1017.76 1017.56 1017.52 1017.72 1017.80 1017.92 1017.96 1018.12 1018.40 1018.56 1018.60 1018.72 1018.84 1018.84 1019.24 1019.48 1019.48 1019.40 1019.08 1018.76 1018.64 1018.40 1018.08
1014.80 1014.72 1014.88 1014.72 1014.64 1014.64 1014.72 1014.60 1014.60 1014.72 1014.92 1015.12 1015.20 1015.12 1015.40 1015.48 1015.72 1016.12 1016.48 1016.72 1016.76 1017.20 1017.52 1017.52 1017.36 1017.04 1016.72 1016.60 1016.68 1016.72 1016.96 1017.16 1017.52 1017.60 1017.64 1017.72 1017.68 1017.60 1017.60 1017.52 1017.60 1017.68 1017.72 1017.80 1017.88 1017.92 1017.88 1018.04 1018.32 1018.68 1018.96 1019.04 1019.20 1019.32 1019.48 1019.68 1019.76 1019.76 1019.56 1019.08 1018.60 1018.36 1018.20
1014.52 1015.00 1015.28 1015.12 1015.04 1014.68 1014.88 1015.04 1015.20 1015.40 1015.48 1015.60 1015.52 1015.52 1015.64 1015.92 1016.36 1016.72 1016.76 1016.80 1017.08 1017.36 1017.40 1017.40 1017.36 1017.28 1017.16 1017.04 1016.96 1017.12 1017.24 1017.20 1017.16 1017.32 1017.44 1017.44 1017.52 1017.48 1017.56 1017.60 1017.80 1017.92 1018.08 1018.20 1018.12 1018.08 1018.08 1018.16 1018.32 1018.68 1019.08 1019.28 1019.48 1019.76 1019.88 1019.88 1019.92 1019.92 1019.84 1019.48 1019.08 1018.80 1018.68
1015.24 1015.16 1014.80 1014.88 1015.08 1015.24 1015.44 1015.52 1015.60 1015.60 1015.72 1015.80 1015.92 1016.08 1016.32 1016.60 1017.04 1017.16 1017.16 1017.16 1017.28 1017.20 1017.04 1017.12 1017.28 1017.40 1017.52 1017.56 1017.52 1017.56 1017.52 1017.40 1017.32 1017.24 1017.36 1017.44 1017.48 1017.60 1017.64 1017.64 1017.80 1018.08 1018.28 1018.36 1018.52 1018.68 1018.84 1018.96 1019.08 1019.32 1019.60 1019.72 1019.84 1020.04 1020.12 1020.00 1020.04 1020.04 1020.00 1019.84 1019.56 1019.44 1019.44
1015.68 1016.00 1016.00 1015.84 1015.72 1015.36 1015.40 1015.80 1015.92 1016.04 1016.12 1016.08 1016.12 1016.28 1016.52 1016.92 1017.44 1017.60 1017.60 1017.72 1017.60 1017.24 1017.20 1017.20 1017.20 1017.36 1017.44 1017.52 1017.64 1017.72 1017.68 1017.60 1017.52 1017.60 1017.56 1017.60 1017.56 1017.64 1017.76 1017.84 1018.04 1018.24 1018.36 1018.52 1018.72 1018.96 1019.20 1019.36 1019.52 1019.68 1019.88 1020.00 1020.12 1020.28 1020.40 1020.40 1020.20 1020.04 1020.00 1019.88 1019.68 1019.64 1019.72
1016.00 1015.96 1015.88 1015.76 1015.88 1016.04 1016.12 1016.48 1016.60 1016.76 1016.72 1016.72 1016.72 1016.80 1017.00 1017.36 1017.80 1018.00 1018.12 1018.20 1017.72 1017.52 1017.48 1017.44 1017.40 1017.36 1017.48 1017.56 1017.60 1017.64 1017.72 1017.80 1017.76 1017.72 1017.76 1017.88 1018.00 1018.00 1018.00 1018.04 1018.16 1018.36 1018.48 1018.64 1018.92 1019.28 1019.56 1019.68 1019.76 1019.92 1020.12 1020.32 1020.44 1020.44 1020.56 1020.64 1020.44 1020.08 1019.84 1019.84 1019.84 1019.80 1019.96
1016.28 1016.08 1016.16 1016.36 1016.48 1016.40 1016.44 1016.76 1017.04 1017.12 1017.24 1017.20 1017.24 1017.20 1017.20 1017.32 1017.84 1018.16 1018.40 1018.20 1017.92 1018.04 1017.96 1017.88 1017.76 1017.72 1017.76 1017.72 1017.64 1017.68 1017.72 1017.72 1017.80 1017.84 1017.84 1017.92 1018.08 1018.36 1018.36 1018.28 1018.32 1018.64 1018.48 1018.48 1018.84 1019.12 1019.44 1019.64 1019.68 1019.96 1020.20 1020.36 1020.60 1020.60 1020.56 1020.64 1020.56 1020.36 1020.04 1019.92 1019.88 1019.92 1019.92
1016.24 1016.24 1016.44 1016.56 1016.72 1016.64 1016.60 1016.72 1016.96 1017.24 1017.52 1017.44 1017.36 1017.52 1017.52 1017.52 1017.76 1018.36 1018.40 1018.08 1018.12 1018.12 1018.20 1018.20 1018.24 1018.24 1018.12 1018.00 1018.00 1017.84 1017.56 1017.68 1017.72 1017.72 1017.76 1017.92 1018.04 1018.28 1018.36 1018.48 1018.56 1018.68 1018.68 1018.56 1018.64 1018.80 1019.00 1019.24 1019.36 1019.60 1019.84 1020.08 1020.36 1020.60 1020.68 1020.64 1020.56 1020.44 1020.28 1020.20 1020.00 1020.00 1020.08
1016.56 1016.68 1016.76 1016.84 1016.76 1016.56 1016.60 1016.72 1017.20 1017.48 1017.60 1017.80 1017.68 1017.76 1017.84 1017.84 1017.76 1017.96 1018.00 1018.04 1018.00 1018.20 1018.32 1018.32 1018.40 1018.44 1018.36 1018.32 1018.16 1018.08 1018.08 1018.04 1017.84 1017.68 1017.88 1018.04 1018.00 1018.20 1018.52 1018.72 1018.92 1019.16 1019.28 1019.24 1019.16 1019.00 1019.00 1019.12 1019.28 1019.36 1019.48 1019.76 1020.00 1020.28 1020.44 1020.44 1020.48 1020.52 1020.52 1020.44 1020.36 1020.24 1020.08
1017.32 1017.08 1017.00 1016.92 1016.80 1016.68 1016.88 1017.08 1017.48 1017.80 1017.96 1018.16 1017.96 1017.88 1017.88 1017.92 1018.04 1018.04 1018.08 1018.08 1018.12 1018.32 1018.52 1018.68 1018.56 1018.52 1018.52 1018.40 1018.32 1018.36 1018.28 1018.28 1018.24 1018.28 1018.40 1018.76 1019.04 1019.20 1019.16 1019.12 1019.36 1019.88 1020.16 1020.16 1020.12 1020.04 1019.60 1019.12 1019.32 1019.56 1019.72 1020.08 1020.12 1020.16 1020.32 1020.84 1021.12 1021.16 1021.04 1020.92 1020.92 1020.84 1020.56
1017.84 1017.80 1017.40 1017.36 1017.24 1016.92 1017.28 1017.60 1017.92 1018.16 1018.36 1018.48 1018.36 1018.36 1018.44 1018.44 1018.32 1018.28 1018.36 1018.44 1018.52 1018.64 1018.76 1018.80 1018.72 1018.64 1018.52 1018.44 1018.36 1018.40 1018.20 1018.04 1018.12 1018.28 1018.76 1019.28 1019.64 1020.04 1020.24 1020.20 1019.84 1020.04 1020.40 1020.60 1020.60 1020.44 1020.24 1020.00 1020.00 1019.92 1019.80 1020.24 1020.48 1020.48 1020.76 1021.20 1021.44 1021.76 1022.04 1021.92 1022.00 1021.60 1021.28
1017.84 1017.80 1017.76 1017.64 1017.48 1017.52 1017.68 1017.88 1018.12 1018.40 1018.60 1018.68 1018.60 1018.64 1018.64 1018.64 1018.56 1018.44 1018.40 1018.60 1018.76 1018.84 1019.00 1018.96 1018.72 1018.44 1018.32 1018.32 1018.48 1018.60 1018.20 1018.12 1018.44 1018.84 1018.92 1019.28 1019.80 1020.00 1020.44 1020.72 1020.60 1020.40 1020.32 1020.72 1021.04 1020.92 1020.72 1020.56 1020.76 1020.72 1020.32 1020.60 1021.00 1020.96 1020.92 1021.32 1021.72 1022.20 1022.16 1022.08 1022.00 1021.88 1021.72
1018.00 1018.00 1017.92 1017.80 1017.92 1018.08 1018.28 1018.32 1018.40 1018.64 1018.88 1018.88 1018.76 1018.76 1018.72 1018.68 1018.60 1018.60 1018.60 1018.72 1018.84 1018.96 1019.16 1019.04 1019.00 1018.80 1018.76 1019.08 1019.24 1019.40 1019.24 1019.00 1019.04 1019.04 1019.40 1019.36 1019.36 1019.76 1020.20 1020.56 1020.88 1021.12 1021.24 1021.28 1021.44 1021.28 1021.16 1021.08 1021.00 1020.84 1020.76 1020.76 1021.16 1021.64 1021.64 1021.80 1022.04 1022.08 1022.12 1022.08 1021.96 1021.84 1021.76
1017.72 1017.84 1017.88 1017.92 1018.04 1018.24 1018.36 1018.48 1018.56 1018.80 1018.96 1018.96 1018.96 1019.04 1018.96 1018.92 1018.80 1018.76 1018.72 1018.88 1019.04 1019.12 1019.24 1019.28 1019.36 1019.52 1019.56 1019.56 1019.68 1019.72 1019.56 1019.56 1019.64 1019.64 1019.60 1019.64 1019.68 1019.68 1019.92 1020.44 1020.92 1021.16 1021.56 1021.68 1021.48 1021.44 1021.44 1021.28 1021.12 1021.08 1021.04 1021.08 1021.12 1021.24 1021.64 1021.84 1021.92 1021.96 1021.76 1021.68 1021.64 1021.60 1021.68
Wind_Speed
13 12 7 7 12 11 13 13 12 12 13 11 11 14 16 14 12 10 12 12 11 11 11 9 9 9 9 9 8 7 5 6 7 7 5 4 1 1 3 2 4 4 2 5 5 3 3 2 2 4 5 5 4 3 3 3 3 3 2 2 2 2 3
13 13 11 12 8 10 8 10 9 9 12 10 11 10 12 16 14 14 12 12 12 12 12 11 10 9 9 9 9 8 7 7 7 5 6 4 3 3 4 4 3 3 2 2 1 2 4 4 4 3 4 5 5 4 5 4 3 3 3 3 2 2 2
12 9 13 9 10 9 9 11 11 11 11 12 12 12 11 14 14 12 12 13 12 12 12 13 11 10 9 8 11 11 9 8 7 7 7 7 7 6 4 2 2 3 4 4 2 1 3 4 3 2 3 4 6 5 4 5 4 3 2 1 2 3 3
13 13 9 5 3 7 10 9 12 10 12 13 12 13 10 11 13 14 12 13 13 14 13 13 13 12 10 9 9 11 12 10 8 6 8 8 9 8 6 5 6 6 6 6 5 5 1 2 5 4 5 4 3 4 5 5 5 4 4 3 4 3 2
13 12 10 6 3 5 7 8 9 10 12 13 11 5 7 10 10 12 11 12 12 13 14 15 12 12 10 10 9 8 10 12 12 11 10 9 9 8 8 9 8 6 3 4 4 4 4 3 5 4 4 3 4 4 5 4 4 4 3 4 3 3 3
16 14 10 10 7 1 8 11 10 7 10 14 12 9 6 10 9 13 10 11 11 12 12 11 13 11 11 12 10 10 9 8 6 8 8 9 7 7 8 8 8 7 7 7 5 6 6 5 5 5 6 7 6 6 6 5 6 5 4 3 3 3 4
16 14 11 9 7 5 5 6 6 7 10 6 11 10 9 4 4 2 4 12 13 12 14 13 14 14 10 9 7 8 10 10 9 10 9 10 10 7 7 7 7 7 8 5 6 5 6 7 6 5 6 7 6 7 4 4 3 3 3 3 3 3 3
13 14 13 11 9 7 6 7 7 7 7 10 8 9 9 7 5 4 7 11 8 10 10 11 9 9 9 9 9 9 9 10 10 9 8 9 10 11 10 9 8 7 5 7 6 6 6 5 7 5 5 6 5 3 6 4 5 6 4 3 4 4 6
16 15 15 14 12 9 8 7 6 6 9 10 9 8 9 8 6 5 4 1 6 14 7 8 9 9 7 8 9 8 9 9 9 9 9 10 9 10 10 9 9 9 8 9 8 6 5 5 5 4 5 6 6 4 5 3 4 4 3 3 3 4 6
6 10 12 16 11 9 9 8 7 7 9 8 8 9 9 8 8 7 7 3 9 13 4 6 6 4 5 6 8 11 11 9 7 10 9 8 8 9 9 9 10 8 9 8 6 6 6 5 2 2 5 5 3 5 6 5 6 5 6 5 5 5 6
1 3 8 10 12 10 9 9 7 6 7 8 7 7 7 7 7 9 12 9 14 6 1 4 6 4 3 5 5 5 8 9 9 10 11 11 10 10 9 9 8 7 8 8 9 7 7 5 6 5 3 5 5 4 4 7 7 6 7 7 6 7 6
6 2 2 6 11 10 9 8 7 6 7 7 7 6 5 5 6 6 4 11 9 6 3 7 4 3 7 4 6 4 6 7 8 9 9 9 9 9 9 8 8 8 8 8 7 9 9 4 4 5 5 4 5 4 4 4 5 5 5 7 7 7 6
11 6 6 6 3 3 9 7 8 7 6 6 7 5 4 5 4 4 4 5 6 5 8 4 2 4 4 7 8 6 5 4 4 3 5 7 7 6 6 8 9 8 8 8 7 7 8 8 6 6 7 5 5 6 5 5 5 3 4 5 5 4 4
7 7 5 6 10 9 8 8 7 8 8 6 6 7 3 2 4 3 2 3 3 4 5 2 3 1 2 4 3 2 3 3 3 4 3 3 2 4 6 7 6 5 6 5 7 8 8 9 11 10 8 8 7 5 4 4 4 4 3 3 5 4 5
8 7 5 5 6 8 6 7 8 8 8 7 6 6 7 6 3 2 1 1 1 2 3 3 4 2 2 2 2 1 3 2 7 10 8 4 3 3 4 5 4 3 4 2 5 8 8 8 8 7 7 7 6 5 5 6 6 5 5 5 5 5 5
8 6 6 6 6 5 5 3 3 6 6 8 7 6 6 6 5 4 3 2 1 1 2 1 2 2 3 3 3 1 3 5 3 2 3 5 7 10 10 8 7 5 3 4 3 3 3 3 4 7 8 8 6 6 5 3 4 4 7 6 4 4 5
6 10 7 8 10 9 6 8 7 4 4 3 6 7 6 6 6 6 6 5 4 4 2 1 2 2 3 2 2 2 4 2 3 2 3 4 2 3 2 7 10 13 14 7 4 3 3 4 6 7 6 8 10 9 5 2 1 9 10 8 9 6 3
6 10 10 9 10 11 9 10 10 8 8 5 4 4 4 5 4 4 3 4 3 2 2 3 3 3 2 3 3 2 3 2 1 2 1 2 2 2 1 1 3 2 6 14 14 8 7 4 3 4 5 6 6 6 7 3 7 9 8 12 13 11 5
5 9 10 10 11 11 11 10 9 8 7 6 6 8 7 6 7 7 6 6 6 5 5 4 3 2 1 2 2 2 2 2 3 1 2 2 1 1 0 0 2 3 4 4 3 6 8 5 7 9 10 8 7 8 4 5 7 7 8 6 7 11 9
8 10 11 10 10 10 10 8 7 8 8 8 9 8 8 9 9 8 6 6 5 5 4 4 4 5 6 6 5 3 2 3 3 2 1 2 2 3 3 4 3 4 3 3 3 2 2 4 5 4 5 8 7 4 5 4 6 6 7 7 6 6 7
10 13 12 10 11 10 9 9 9 10 10 9 11 8 6 7 8 8 8 7 7 6 5 5 5 5 5 4 3 2 4 3 1 2 2 3 5 5 4 4 4 4 1 3 1 3 4 4 5 6 5 4 2 3 4 4 7 7 7 6 5 6 3
11 12 11 9 10 9 8 7 7 9 8 8 9 9 8 9 9 9 9 8 8 7 7 7 7 7 7 6 6 6 4 3 3 1 2 5 5 4 3 3 3 3 2 2 4 3 2 4 2 4 4 2 2 2 5 4 10 10 10 10 7 4 1
11 12 12 9 8 9 10 12 9 8 9 9 9 10 10 8 9 9 9 9 8 8 8 8 7 7 7 7 7 7 6 5 3 1 1 3 2 1 4 4 4 3 1 3 2 2 3 2 2 3 2 3 2 2 4 4 9 10 9 8 10 5 3
13 13 11 9 9 10 9 9 9 9 10 11 11 9 9 9 7 7 7 8 7 7 6 8 8 8 7 7 7 6 5 4 4 4 3 2 2 1 2 2 1 4 3 2 3 3 4 3 4 3 3 4 3 2 5 4 7 10 9 9 8 6 3
13 11 9 10 11 11 10 9 9 10 11 11 11 9 9 11 10 8 6 7 9 9 8 8 7 6 7 6 7 5 4 4 5 6 5 6 5 4 4 4 3 3 0 2 2 3 4 3 5 3 4 5 6 10 8 5 7 12 11 10 9 5 3
12 12 12 11 11 11 10 8 9 11 12 12 12 13 11 10 9 8 9 9 9 9 8 7 7 9 8 6 6 5 5 5 6 6 6 5 6 5 5 5 4 3 2 1 3 2 2 4 5 5 5 5 5 6 6 6 6 9 13 12 12 10 2
12 12 11 10 9 8 9 10 11 12 12 10 9 10 10 9 9 10 9 9 9 10 9 8 7 7 8 7 8 7 6 6 6 6 5 6 6 5 5 5 6 6 5 4 3 2 2 5 5 6 6 6 7 7 7 6 5 8 12 13 15 15 9
12 9 9 10 11 9 9 10 10 12 12 10 10 10 10 10 9 8 8 9 10 9 8 8 7 7 6 5 6 6 6 5 5 6 5 6 5 4 5 6 7 6 6 5 7 9 8 8 7 8 7 7 7 6 5 7 9 5 9 12 13 14 14
9 10 9 9 8 9 10 10 11 12 12 11 11 10 10 11 10 9 9 9 9 8 7 7 7 6 5 5 6 5 6 5 7 6 5 5 5 4 5 6 7 7 7 7 8 9 8 7 6 7 7 6 5 5 4 4 5 8 7 10 12 12 11
8 8 9 10 10 10 11 10 10 10 11 10 10 10 10 9 9 8 9 9 7 7 6 5 5 4 5 5 5 5 5 6 5 4 5 5 5 4 4 5 6 6 6 6 6 6 6 5 5 6 6 5 5 5 4 3 3 6 8 8 10 10 10
7 7 10 10 9 8 9 9 10 10 10 9 10 9 9 9 9 9 9 7 5 5 5 5 5 5 5 5 4 4 5 4 3 3 4 5 5 4 4 5 5 4 2 5 6 6 5 4 4 5 5 4 4 4 3 2 3 3 5 6 6 7 7
7 9 10 9 8 7 8 9 10 10 10 10 10 8 7 8 8 8 6 5 5 5 5 5 4 4 4 4 4 5 2 5 7 6 4 6 5 5 4 4 4 4 3 1 4 4 4 4 4 4 5 5 5 4 3 3 3 1 3 3 3 3 3
7 8 7 8 7 6 6 9 9 9 10 10 9 8 7 7 7 6 4 4 5 5 4 3 3 4 3 4 4 3 4 6 6 5 8 8 6 7 6 6 6 8 8 8 7 3 3 3 3 3 4 5 4 5 4 4 4 5 5 6 6 5 4
7 6 8 6 4 4 6 7 9 9 8 7 7 7 6 6 7 7 7 7 6 5 4 5 5 4 3 4 3 2 2 2 5 6 5 7 7 7 7 6 7 7 7 7 6 7 7 3 5 5 5 6 4 2 5 7 6 6 5 6 6 5 5
6 7 6 6 6 4 7 8 8 7 7 6 5 6 6 5 4 6 6 5 5 4 4 3 2 0 2 4 4 3 2 3 4 5 6 7 7 7 6 6 6 6 6 7 6 6 6 6 7 7 8 7 6 5 6 6 4 3 4 4 3 3 4
4 4 5 5 2 6 7 7 7 7 6 5 4 4 4 5 4 4 6 4 4 3 2 2 2 2 2 5 6 7 5 4 4 5 5 7 6 6 6 10 12 8 5 5 6 10 11 9 6 5 5 7 6 6 5 5 3 2 4 4 3 4 4
5 4 4 5 3 5 6 6 6 6 5 3 3 3 3 4 5 4 4 3 2 2 2 2 3 3 4 5 5 6 6 6 6 5 4 5 4 6 6 5 7 12 12 10 7 7 8 9 10 13 12 7 6 6 10 8 4 1 2 1 1 3 4
5 5 5 5 4 5 6 7 7 7 6 4 3 2 2 3 3 3 4 3 3 2 2 2 2 4 4 4 3 3 4 4 4 4 4 3 3 3 3 5 5 4 6 8 8 8 8 8 10 10 11 12 9 5 3 5 3 1 3 4 5 5 5
Wind_Direction
186 194 223 248 178 195 168 174 182 178 171 177 176 171 169 153 153 162 155 164 161 165 160 166 172 167 173 146 151 158 163 174 161 164 156 165 179 245 224 215 213 224 196 195 212 206 206 205 213 186 158 174 197 187 189 184 203 202 205 246 188 176 297
197 183 186 204 206 172 167 162 191 171 167 169 176 171 175 147 157 163 160 166 166 168 164 168 174 170 178 149 160 160 177 187 181 150 151 146 180 205 235 211 196 216 169 239 260 160 240 195 201 189 168 170 199 186 180 197 202 208 200 185 192 233 244
183 185 189 196 190 164 177 173 186 179 170 174 178 175 181 146 158 156 159 163 167 169 171 169 174 174 178 173 158 169 171 180 181 178 166 169 184 193 219 270 172 212 199 182 210 173 205 208 186 195 193 185 199 180 191 190 195 210 177 175 217 192 217
198 191 180 170 166 170 182 178 174 174 175 180 175 177 171 148 153 150 160 162 167 172 175 173 176 175 181 177 172 169 173 179 171 183 181 193 181 187 176 182 219 210 182 195 200 194 206 176 207 181 209 201 213 176 197 202 196 198 182 171 219 205 175
191 185 176 162 160 193 163 181 169 175 178 181 172 149 147 147 149 151 160 163 170 173 176 177 178 175 177 180 183 183 184 181 174 179 194 177 191 167 187 188 201 207 191 195 198 162 191 238 209 195 190 224 202 199 194 201 210 183 196 195 216 215 192
188 181 178 164 157 277 173 172 178 175 178 183 154 132 139 158 159 172 166 169 171 176 176 177 178 175 178 183 191 182 180 186 186 181 183 168 174 180 187 197 201 183 199 216 190 193 169 213 220 188 203 200 214 204 204 197 206 198 194 205 208 217 223
184 183 181 169 139 154 90 90 127 152 194 151 154 145 136 131 98 19 186 183 181 185 175 182 181 173 177 182 198 181 176 189 188 192 196 183 171 181 194 189 208 193 194 200 189 219 170 197 205 196 206 207 207 207 183 195 204 218 194 192 206 179 252
172 181 184 176 163 144 94 93 101 83 95 111 117 109 103 88 66 66 26 355 317 208 176 178 194 168 166 179 193 193 186 192 183 198 193 204 188 181 190 197 192 211 181 204 194 196 204 202 202 195 214 217 212 179 186 185 195 207 192 214 193 222 218
175 179 181 179 172 155 117 102 92 105 112 124 116 107 106 103 108 112 84 221 250 286 193 173 185 171 177 179 172 197 193 200 191 190 200 204 209 199 200 192 199 194 186 204 189 186 205 220 205 193 205 209 193 184 161 160 201 202 199 198 226 234 242
162 162 178 186 175 152 123 111 112 107 107 106 117 124 125 144 149 138 136 147 236 243 203 190 170 154 176 178 184 189 196 197 190 191 205 217 218 216 208 200 198 201 204 182 189 190 201 214 178 237 220 211 203 191 170 185 199 205 192 200 209 225 237
119 186 170 186 177 156 131 131 126 107 106 111 98 95 127 152 159 168 152 171 236 214 192 210 148 183 170 176 192 208 202 198 198 197 197 206 215 218 216 213 209 197 212 204 189 182 217 187 187 208 203 212 210 208 189 189 205 205 208 204 203 221 228
120 148 171 180 179 159 145 140 141 128 122 118 108 104 109 101 91 97 133 178 185 114 45 264 165 195 160 190 204 200 229 215 203 206 208 214 218 216 219 216 222 215 204 213 216 181 193 175 203 181 195 216 218 191 216 234 206 205 217 226 205 204 220
166 169 131 106 76 157 137 143 159 152 146 132 121 123 122 109 93 78 58 42 50 110 166 212 271 184 191 187 198 196 210 246 275 292 226 214 232 231 236 229 215 220 221 209 218 215 196 181 207 188 192 203 209 215 212 222 225 225 218 231 234 203 215
142 142 147 146 133 145 164 164 166 171 160 171 144 130 112 97 108 97 65 37 17 11 11 91 186 168 219 222 208 188 206 243 270 246 278 288 255 241 248 258 251 228 218 204 209 214 220 204 188 203 178 197 206 209 211 218 221 226 229 235 246 226 222
140 145 157 147 133 138 142 174 168 177 172 183 168 130 134 144 146 140 170 170 150 346 335 345 357 336 223 262 283 115 157 13 9 341 307 285 310 313 304 290 289 292 286 230 218 225 218 223 232 175 189 208 196 205 197 213 229 228 217 222 235 248 239
146 146 163 164 124 138 134 119 207 169 166 162 174 156 153 156 153 169 198 207 207 255 251 332 287 282 320 289 237 282 33 85 132 159 333 8 354 1 341 334 318 305 284 286 272 261 242 268 235 237 199 182 205 204 201 188 241 255 238 215 243 247 245
165 145 164 157 162 136 123 162 126 130 142 191 160 164 166 160 159 167 179 179 179 192 238 237 250 246 243 276 336 12 43 61 78 54 8 19 12 120 64 2 339 345 334 315 268 272 259 213 245 240 237 195 176 208 184 145 50 326 285 237 232 248 256
152 131 138 141 124 133 147 112 111 91 98 95 113 158 143 112 114 130 103 101 85 89 211 207 209 223 244 274 315 333 327 352 30 83 51 25 17 346 345 138 123 131 316 323 317 321 285 285 283 305 285 266 231 176 111 133 16 347 304 259 233 225 230
134 102 88 85 90 89 90 91 86 102 101 97 100 83 69 95 94 90 93 97 87 87 85 75 62 83 192 237 265 298 339 325 284 206 194 152 89 238 122 99 264 222 201 188 263 310 320 22 4 345 330 307 343 63 86 102 37 352 13 21 315 250 220
104 91 90 89 92 91 94 111 123 102 84 65 52 59 74 82 94 91 91 94 89 91 93 91 80 73 59 48 33 360 297 276 269 254 180 138 201 223 175 211 231 258 249 353 5 340 2 356 357 360 14 29 57 90 78 56 4 5 34 27 27 11 330
94 95 94 91 90 90 95 106 116 126 125 132 123 120 115 101 96 100 99 99 96 99 98 84 77 70 64 64 44 31 15 355 310 276 234 210 216 220 206 204 206 226 144 147 179 346 6 4 44 49 48 53 132 122 87 52 1 16 20 37 36 12 358
99 97 95 97 108 120 127 121 106 110 119 129 120 111 109 103 102 99 95 94 93 93 95 91 80 66 63 60 51 42 23 340 298 243 245 232 221 224 221 238 223 215 187 155 139 186 222 55 31 56 51 26 353 76 92 52 22 14 9 5 360 352 318
105 103 102 111 126 126 120 118 117 116 111 104 97 94 86 84 96 101 101 103 101 99 91 89 82 76 69 65 55 46 41 27 18 334 86 42 32 298 262 245 239 248 265 251 218 111 119 188 93 53 52 72 65 67 78 52 17 14 15 1 341 321 233
99 103 105 109 96 95 97 107 114 113 106 106 103 108 108 108 102 104 110 107 101 91 90 90 103 105 96 85 72 72 61 65 59 45 35 81 85 50 14 15 330 225 204 172 126 147 166 123 97 82 56 50 42 68 104 77 26 19 19 7 339 311 308
95 92 103 104 91 86 80 82 91 116 123 119 110 103 119 130 128 96 85 88 93 94 80 61 45 88 112 89 103 113 109 87 77 74 63 67 68 67 76 60 47 28 214 210 166 153 141 135 111 104 64 49 42 58 64 48 28 18 13 14 2 336 310
110 105 92 92 93 98 109 114 106 84 69 61 66 83 81 74 76 91 111 110 95 79 72 66 44 22 29 75 89 78 81 108 119 100 91 94 83 72 66 72 77 79 41 286 228 218 167 128 120 119 103 69 52 58 59 57 41 21 12 17 19 356 45
91 100 110 116 123 118 93 81 74 76 77 72 71 75 81 83 84 82 78 78 80 85 89 96 81 54 40 36 61 62 65 59 61 85 100 91 92 77 71 67 59 58 59 43 35 45 98 113 107 90 76 68 70 62 50 47 49 37 25 25 27 21 24
124 107 96 95 90 97 105 107 108 108 109 107 98 90 83 80 74 66 63 68 71 76 84 84 85 91 87 71 66 63 47 56 66 47 56 91 92 89 88 82 76 73 62 56 69 67 60 61 67 77 69 60 62 61 61 54 54 50 40 37 36 36 22
96 87 94 98 94 86 91 88 85 84 86 83 82 84 87 86 80 73 66 63 61 63 61 61 73 83 88 94 88 74 66 49 58 62 54 45 52 58 83 90 85 78 74 74 75 71 70 70 73 75 75 77 66 66 59 53 59 55 55 43 43 40 36
104 121 113 95 88 87 81 79 78 76 76 79 83 85 85 83 79 74 68 58 44 53 56 59 62 75 83 79 74 84 87 79 62 72 81 84 78 54 46 82 89 88 97 96 86 86 83 84 90 90 87 74 61 59 50 18 21 52 59 55 44 42 32
130 117 102 100 98 91 93 97 98 93 88 83 81 80 84 84 81 76 71 63 56 44 49 53 49 45 54 57 76 98 98 89 112 110 103 91 83 64 45 53 77 93 122 118 112 113 116 118 114 107 112 108 99 84 74 58 52 40 42 50 67 38 20
147 117 108 112 110 103 100 98 96 99 99 97 92 89 83 83 81 78 70 70 60 55 54 54 51 48 43 54 42 17 59 146 132 117 118 109 93 83 69 77 80 73 37 350 112 103 108 135 130 129 123 119 123 132 146 152 136 121 51 346 34 57 8
109 95 100 94 96 130 116 105 99 88 82 78 78 82 86 92 102 112 130 122 106 82 51 59 82 77 61 50 45 48 32 29 27 71 60 42 66 80 73 36 37 29 23 22 20 52 99 76 82 113 112 111 120 124 146 131 82 49 32 26 10 11 345
45 94 112 116 154 119 109 102 96 91 84 79 77 78 79 75 70 59 47 51 52 57 51 34 24 59 66 69 87 90 72 67 49 52 64 62 45 42 36 50 60 50 37 27 22 11 359 22 61 44 79 60 43 84 104 68 50 26 12 12 13 358 356
65 44 59 67 34 49 80 86 91 95 97 91 83 79 73 76 78 80 70 58 57 41 47 50 57 9 194 176 158 134 192 145 93 86 101 83 78 61 43 22 40 73 75 52 38 26 20 21 38 27 46 55 32 43 79 76 68 36 346 348 360 5 360
103 116 98 97 74 65 75 85 97 100 99 99 100 110 113 95 89 88 86 71 51 27 29 355 307 280 47 32 33 21 11 68 75 47 42 116 106 95 82 53 51 39 54 81 50 53 52 57 59 22 23 71 50 28 51 70 68 32 3 343 0 37 31
167 176 174 165 152 117 114 118 110 109 105 95 94 98 104 113 99 91 87 78 85 76 51 346 354 14 62 43 35 26 10 37 47 65 56 29 89 124 111 103 53 45 48 46 52 50 57 74 65 51 39 50 99 66 71 84 89 65 259 246 89 60 20
197 184 192 185 194 168 162 152 151 145 142 137 142 123 116 115 105 93 102 91 79 76 78 51 51 49 53 54 68 26 23 50 47 36 36 57 37 39 132 139 115 99 46 53 49 31 40 59 72 73 69 55 53 80 122 115 118 76 4 360 6 8 6